Location: Makakahi
(40.6833°S, 175.6000°E)
Time: 18:48:15
(UTC+00:00)

FENGYUN 1C DEB - Pass Details

Date: 15 February 2026
Orbit: 839 x 906 km, 98.9° (Epoch: 9 March)

Event Time Altitude Azimuth Distance (km) Brightness Sun altitude
Rises 08:48:05 0° 163° (SSE) 3,451 ? -15.8°
Reaches altitude 10° 08:50:30 10° 159° (SSE) 2,515 ? -16.2°
Maximum altitude 08:56:02 59° 79° (ENE) 1,001 ? -17.1°
Drops below altitude 10° 09:01:34 10° 359° (N) 2,526 ? -17.9°
Enters shadow 09:01:38 10° 359° (N) 2,550 ? -17.9°
